Location: Arthez
(43.0833°N, 0.2500°W)
Time: 22:51:34
(UTC+00:00)

CZ-2C R/B - Pass Details

Date: 23 October 2021
Orbit: 388 x 573 km, 35.0° (Epoch: 27 November)

Event Time Altitude Azimuth Distance (km) Brightness Sun altitude
Rises 19:09:48 0° 256° (WSW) 2,461 5.8 -23.3°
Reaches altitude 10° 19:13:25 10° 219° (SW) 1,531 4.0 -24.0°
Enters shadow 19:14:23 11° 202° (SSW) 1,460 3.6 -24.2°
